Regional Weather Roundup
Issued by NWS

Home | Current Version | Previous Version | Text Only | Print | Product List | Glossary Off
Versions: 1 2 3 4 5 6 7 8 9 10 11 12 13 14 15 16 17 18 19 20 21 22 23 24 25 26 27 28 29 30 31 32 33 34 35 36 37 38 39 40 41 42 43 44 45 46 47 48 49 50

000
ASUS43 KTOP 040859
RWRKS

WEATHER ROUNDUP FOR KANSAS
NATIONAL WEATHER SERVICE GOODLAND KS
300 AM CST WED MAR 04 2015

NOTE:  "FAIR" INDICATES FEW OR NO CLOUDS BELOW 12,000 FEET WITH NO
SIGNIFICANT WEATHER AND/OR OBSTRUCTIONS TO VISIBILITY.

KSZ001>006-013>018-027>032-041>047-041000-
NORTHWEST KANSAS

CITY           SKY/WX    TMP DP  RH WIND       PRES   REMARKS
GOODLAND       LGT SNOW  17  14  88 NE7       30.06R FOG
HAYS           CLOUDY    19   7  58 NE16      30.14S WCI   5
HILL CITY      CLOUDY    19  12  74 NE18      30.16R WCI   4
RUSSELL        CLOUDY    20  11  68 N17       30.13R WCI   5
$$

KSZ061>065-074>080-084>089-041000-
SOUTHWEST KANSAS

CITY           SKY/WX    TMP DP  RH WIND       PRES   REMARKS
DODGE CITY     CLOUDY    24   7  48 NE20G30   30.06R WCI  10
ELKHART          N/A     25  14  63 E14         N/A  WCI  13
GARDEN CITY    CLOUDY    22   8  55 NE22G28   30.06R WCI   6
GREAT BEND     CLOUDY    23   7  50 NE20      30.14R WCI   8
LIBERAL        CLOUDY    25  18  74 NE14      30.03S WCI  13
$$

KSZ066>073-081>083-090>101-041000-
SOUTHEAST KANSAS

CITY           SKY/WX    TMP DP  RH WIND       PRES   REMARKS
CHANUTE        CLOUDY    31  23  72 N21G28    30.04R WCI  18
COFFEYVILLE    CLOUDY    33  27  78 N20G25    30.03R WCI  21
HUTCHINSON     CLOUDY    25   8  48 N20G28    30.12R WCI  11
MEDICINE LODGE   N/A     25  18  74 NE18      30.07R WCI  11
NEWTON         CLOUDY    23   9  54 N21       30.12R WCI   8
PARSONS        CLOUDY    33  26  75 N14G22    30.04R WCI  23
WICHITA INTL   FLURRIES  26  15  63 N22G30    30.10R WCI  12
WICHITA JABRA  FLURRIES  24  15  68 N20G29    30.10R WCI  10
WICHITA MCCONL MIX PCPN  27  16  63 N18G25    30.08R WCI  13
WINFIELD       CLOUDY    31  20  63 N23G30    30.06R WCI  18
$$

KSZ007>012-019>026-033>040-048>060-102>105-041000-
NORTHEAST KANSAS

CITY           SKY/WX    TMP DP  RH WIND       PRES   REMARKS
CONCORDIA      CLOUDY    19  13  77 N12       30.18R WCI   7
EMPORIA        CLOUDY    23  11  60 N16G25    30.10R WCI  10
LAWRENCE       CLOUDY    20   7  57 N23G32    30.14R WCI   3
MANHATTAN      CLOUDY    22   7  52 N16G23    30.18S WCI   8
OLATHE IND     CLOUDY    23  12  62 N20       30.11R WCI   8
OLATHE EXE     CLOUDY    23  14  68 N17       30.08R WCI   9
SALINA         CLOUDY    24   8  50 N16G24    30.16R WCI  11
TOPEKA BILLARD CLOUDY    22   8  55 N18G25    30.17R WCI   7
TOPEKA FORBES  CLOUDY    23   8  52 N20G30    30.14R WCI   8
$$



USA.gov is the U.S. government's official web portal to all federal, state and local government web resources and services.